Location: Cotdoussan
(43.0366°N, 0.0068°E)
Time: 01:16:56
(UTC+00:00)

ARIANE 6 FM1 Upper Stage - Pass Details

Date: 27 January 2026
Orbit: 522 x 609 km, 62.0° (Epoch: 11 February)

Event Time Altitude Azimuth Distance (km) Brightness Sun altitude
Rises 17:30:07 0° 221° (SW) 2,716 7.4 -4.9°
Reaches altitude 10° 17:32:21 10° 223° (SW) 1,812 6.4 -5.3°
Maximum altitude 17:36:25 76° 309° (NW) 558 2.8 -6.0°
Drops below altitude 10° 17:40:25 10° 36° (NE) 1,783 4.7 -6.7°
Enters shadow 17:41:38 - 37° (NE) 2,270 5.3 -6.9°
